Simultaneous Nadir Overpasses (SNOs) Predictions

Prediction of SNOs between METOP-B and NOAA-19 Satellite Orbit:

Table of predicted SNOs for the next 14.0 days since TLE Epoch: 3/5/2022
Index Date (METOP-B) Time (METOP-B) Lat,Lon (METOP-B) SZA (METOP-B ) Date (NOAA-19) Time (NOAA-19) Lat,Lon (NOAA-19) SZA (NOAA-19 ) Distance(km) Time Diff (sec)
1 03/05/2022 21:07:55 80.79,-104.92 87.71 03/05/2022 21:06:54 80.78,-104.86 87.69 1.53 61
2 03/05/2022 21:58:37 -80.78, 62.18 92.34 03/05/2022 21:57:52 -80.79, 62.10 92.35 1.83 45
3 03/05/2022 22:49:17 80.78,-130.41 87.66 03/05/2022 22:48:54 80.78,-130.33 87.66 1.39 23
4 03/05/2022 23:39:58 -80.79, 37.03 92.34 03/05/2022 23:39:51 -80.78, 37.00 92.35 1.36 7
5 03/06/2022 00:30:39 80.77,-155.90 87.62 03/06/2022 00:30:54 80.78,-155.81 87.64 1.89 15
6 03/06/2022 01:21:20 -80.78, 11.54 92.39 03/06/2022 01:21:51 -80.78, 11.53 92.38 0.34 31
7 03/06/2022 02:12:01 80.76, 178.60 87.57 03/06/2022 02:12:54 80.78, 178.72 87.61 2.71 53
8 03/06/2022 03:02:42 -80.77, -13.95 92.43 03/06/2022 03:03:51 -80.78, -13.94 92.40 0.72 69
9 03/17/2022 01:43:57 80.79,-174.00 83.38 03/17/2022 01:42:59 80.79,-173.81 83.38 3.29 58
10 03/17/2022 02:34:38 -80.80, -6.52 96.62 03/17/2022 02:33:59 -80.79, -6.49 96.64 1.26 39
11 03/17/2022 03:25:18 80.80, 160.85 83.38 03/17/2022 03:24:59 80.79, 160.71 83.35 2.90 19
12 03/17/2022 04:16:00 -80.79, -32.02 96.66 03/17/2022 04:15:59 -80.79, -31.96 96.66 1.06 1
13 03/17/2022 05:06:40 80.79, 135.36 83.33 03/17/2022 05:06:59 80.79, 135.23 83.33 2.30 19
14 03/17/2022 05:57:22 -80.78, -57.52 96.71 03/17/2022 05:57:59 -80.79, -57.44 96.69 1.69 37
15 03/17/2022 06:48:02 80.78, 109.86 83.28 03/17/2022 06:48:59 80.79, 109.75 83.30 2.08 57



Historial Predications of SNOs between METOP-B and NOAA-19
